User: anonymous   Login
Location: Hickory_Viewmont
(35.7830°N, 81.3170°W)
Time: 19:26:51
(UTC-05:00)
Language:

Okean-O - Orbit

View from above orbital plane
View from above orbital plane
View from above satellite
View from above satellite

Ground track
Ground track

The orbit data is extracted from the following two-line orbital elements,

1 25860U 99039A   16041.84931962  .00000466  00000-0  74773-4 0  9993
2 25860  98.1284  15.7748 0000850  80.4553 337.6702 14.76281108891199
Epoch (UTC): 10 February 2016 20:23:01
Eccentricity: 0.0000850
inclination: 98.1284°
perigee height: 640 km
apogee height: 641 km
right ascension of ascending node: 15.7748°
argument of perigee: 80.4553°
revolutions per day: 14.76281108
mean anomaly at epoch: 337.6702°
orbit number at epoch: 89119

The dashed part of the orbit path shows where the satellite is in the earth's shadow,  

DLR